Time,TemperatureF,DewpointF,PressureIn,WindDirection,WindDirectionDegrees,WindSpeedMPH,WindSpeedGustMPH,Humidity,HourlyPrecipIn,Conditions,Clouds,dailyrainin,SoftwareType,DateUTC
2015-04-01 00:13:00,36.3,33.0,30.04,SW,221,0.0,0.0,88,0.00,,,0.00,weatherlink.com 1.10,2015-04-01 04:13:00,
2015-04-01 00:28:00,35.9,33.0,30.04,SW,221,0.0,0.0,89,0.00,,,0.00,weatherlink.com 1.10,2015-04-01 04:28:00,
2015-04-01 00:43:00,35.0,32.0,30.03,SW,222,0.0,0.0,89,0.00,,,0.00,weatherlink.com 1.10,2015-04-01 04:43:00,
2015-04-01 00:58:00,34.1,32.0,30.03,SW,222,0.0,0.0,90,0.00,,,0.00,weatherlink.com 1.10,2015-04-01 04:58:00,
2015-04-01 01:13:00,33.7,31.0,30.04,SW,222,0.0,0.0,91,0.00,,,0.00,weatherlink.com 1.10,2015-04-01 05:13:00,
2015-04-01 01:28:00,34.2,32.0,30.03,South,183,0.0,1.0,93,0.00,,,0.00,weatherlink.com 1.10,2015-04-01 05:28:00,
2015-04-01 01:43:00,34.5,32.0,30.04,South,185,0.0,0.0,91,0.00,,,0.00,weatherlink.com 1.10,2015-04-01 05:43:00,
2015-04-01 01:58:00,34.4,32.0,30.04,South,185,0.0,0.0,91,0.00,,,0.00,weatherlink.com 1.10,2015-04-01 05:58:00,
2015-04-01 02:13:00,34.1,32.0,30.05,South,185,0.0,0.0,92,0.00,,,0.00,weatherlink.com 1.10,2015-04-01 06:13:00,
2015-04-01 02:29:00,34.0,32.0,30.05,South,184,0.0,0.0,91,0.00,,,0.00,weatherlink.com 1.10,2015-04-01 06:29:00,
2015-04-01 02:44:00,33.7,32.0,30.06,South,185,0.0,0.0,92,0.00,,,0.00,weatherlink.com 1.10,2015-04-01 06:44:00,
2015-04-01 02:59:00,33.5,32.0,30.06,South,184,0.0,0.0,92,0.00,,,0.00,weatherlink.com 1.10,2015-04-01 06:59:00,
2015-04-01 03:14:00,34.5,33.0,30.06,South,185,0.0,0.0,93,0.00,,,0.00,weatherlink.com 1.10,2015-04-01 07:14:00,
2015-04-01 03:29:00,34.6,33.0,30.05,SSE,155,0.0,0.0,92,0.00,,,0.00,weatherlink.com 1.10,2015-04-01 07:29:00,
2015-04-01 03:44:00,34.9,33.0,30.05,SSE,158,0.0,1.0,91,0.00,,,0.00,weatherlink.com 1.10,2015-04-01 07:44:00,
2015-04-01 03:59:00,34.8,33.0,30.05,South,173,0.0,1.0,92,0.00,,,0.00,weatherlink.com 1.10,2015-04-01 07:59:00,
2015-04-01 04:14:00,35.1,33.0,30.05,South,183,0.0,0.0,92,0.00,,,0.00,weatherlink.com 1.10,2015-04-01 08:14:00,
2015-04-01 04:29:00,34.8,33.0,30.05,South,183,0.0,0.0,92,0.00,,,0.00,weatherlink.com 1.10,2015-04-01 08:29:00,
2015-04-01 04:44:00,35.0,33.0,30.05,South,173,0.0,0.0,92,0.00,,,0.00,weatherlink.com 1.10,2015-04-01 08:44:00,
2015-04-01 04:59:00,34.6,33.0,30.05,South,186,0.0,2.0,93,0.00,,,0.00,weatherlink.com 1.10,2015-04-01 08:59:00,
2015-04-01 05:14:00,34.9,33.0,30.05,SSW,201,0.0,0.0,93,0.00,,,0.00,weatherlink.com 1.10,2015-04-01 09:14:00,
2015-04-01 05:29:00,34.5,33.0,30.05,SSW,207,0.0,0.0,93,0.00,,,0.00,weatherlink.com 1.10,2015-04-01 09:29:00,
2015-04-01 05:44:00,35.0,34.0,30.06,SSW,194,0.0,1.0,94,0.00,,,0.00,weatherlink.com 1.10,2015-04-01 09:44:00,
2015-04-01 05:59:00,35.1,33.0,30.06,South,170,0.0,1.0,93,0.00,,,0.00,weatherlink.com 1.10,2015-04-01 09:59:00,
2015-04-01 06:14:00,34.8,33.0,30.07,SSW,207,0.0,0.0,93,0.00,,,0.00,weatherlink.com 1.10,2015-04-01 10:14:00,
2015-04-01 06:29:00,34.5,33.0,30.07,SW,224,0.0,0.0,93,0.00,,,0.00,weatherlink.com 1.10,2015-04-01 10:29:00,
2015-04-01 06:44:00,34.2,32.0,30.08,SSW,205,0.0,0.0,93,0.00,,,0.00,weatherlink.com 1.10,2015-04-01 10:44:00,
2015-04-01 06:59:00,34.3,33.0,30.09,South,188,0.0,0.0,94,0.00,,,0.00,weatherlink.com 1.10,2015-04-01 10:59:00,
2015-04-01 07:14:00,34.1,33.0,30.09,SSW,193,0.0,0.0,94,0.00,,,0.00,weatherlink.com 1.10,2015-04-01 11:14:00,
2015-04-01 07:29:00,34.4,33.0,30.10,SSW,197,0.0,1.0,94,0.00,,,0.00,weatherlink.com 1.10,2015-04-01 11:29:00,
2015-04-01 07:44:00,35.1,34.0,30.11,SSW,197,0.0,1.0,94,0.00,,,0.00,weatherlink.com 1.10,2015-04-01 11:44:00,
2015-04-01 07:59:00,37.6,36.0,30.11,SSW,198,0.0,0.0,94,0.00,,,0.00,weatherlink.com 1.10,2015-04-01 11:59:00,
2015-04-01 08:14:00,40.9,38.0,30.12,SSW,198,0.0,0.0,89,0.00,,,0.00,weatherlink.com 1.10,2015-04-01 12:14:00,
2015-04-01 08:29:00,44.7,39.0,30.12,South,183,1.0,3.0,81,0.00,,,0.00,weatherlink.com 1.10,2015-04-01 12:29:00,
2015-04-01 08:45:00,45.9,40.0,30.13,SSE,147,0.0,3.0,79,0.00,,,0.00,weatherlink.com 1.10,2015-04-01 12:45:00,
2015-04-01 08:59:00,46.8,40.0,30.14,South,170,1.0,3.0,78,0.00,,,0.00,weatherlink.com 1.10,2015-04-01 12:59:00,
2015-04-01 09:14:00,47.2,40.0,30.14,SSW,208,1.0,6.0,76,0.00,,,0.00,weatherlink.com 1.10,2015-04-01 13:14:00,
2015-04-01 09:31:00,49.0,41.0,30.14,South,191,2.0,7.0,74,0.00,,,0.00,weatherlink.com 1.10,2015-04-01 13:31:00,
2015-04-01 09:45:00,48.8,41.0,30.15,SW,228,2.0,8.0,75,0.00,,,0.00,weatherlink.com 1.10,2015-04-01 13:45:00,
2015-04-01 10:00:00,50.6,42.0,30.16,SSW,202,1.0,6.0,72,0.00,,,0.00,weatherlink.com 1.10,2015-04-01 14:00:00,
2015-04-01 10:15:00,51.3,41.0,30.16,South,176,3.0,5.0,69,0.00,,,0.00,weatherlink.com 1.10,2015-04-01 14:15:00,
2015-04-01 10:30:00,52.5,43.0,30.16,WSW,255,2.0,6.0,69,0.00,,,0.00,weatherlink.com 1.10,2015-04-01 14:30:00,
2015-04-01 10:45:00,54.3,43.0,30.17,South,190,1.0,5.0,65,0.00,,,0.00,weatherlink.com 1.10,2015-04-01 14:45:00,
2015-04-01 11:15:00,57.2,44.0,30.17,SW,228,1.0,5.0,61,0.00,,,0.00,weatherlink.com 1.10,2015-04-01 15:15:00,
2015-04-01 11:30:00,58.4,43.0,30.16,SSW,207,1.0,5.0,58,0.00,,,0.00,weatherlink.com 1.10,2015-04-01 15:30:00,
2015-04-01 11:45:00,59.5,43.0,30.16,South,174,1.0,6.0,54,0.00,,,0.00,weatherlink.com 1.10,2015-04-01 15:45:00,
2015-04-01 12:00:00,61.0,43.0,30.16,SSW,203,1.0,4.0,52,0.00,,,0.00,weatherlink.com 1.10,2015-04-01 16:00:00,
2015-04-01 12:15:00,61.3,43.0,30.16,SSW,208,0.0,4.0,52,0.00,,,0.00,weatherlink.com 1.10,2015-04-01 16:15:00,
2015-04-01 12:30:00,62.6,42.0,30.15,ESE,107,2.0,6.0,47,0.00,,,0.00,weatherlink.com 1.10,2015-04-01 16:30:00,
2015-04-01 12:45:00,62.9,41.0,30.14,South,187,1.0,6.0,45,0.00,,,0.00,weatherlink.com 1.10,2015-04-01 16:45:00,
2015-04-01 13:00:00,63.0,41.0,30.14,SSW,210,2.0,6.0,44,0.00,,,0.00,weatherlink.com 1.10,2015-04-01 17:00:00,
2015-04-01 13:15:00,64.3,42.0,30.14,WSW,256,1.0,5.0,45,0.00,,,0.00,weatherlink.com 1.10,2015-04-01 17:15:00,
2015-04-01 13:30:00,65.6,42.0,30.14,SE,141,0.0,5.0,42,0.00,,,0.00,weatherlink.com 1.10,2015-04-01 17:30:00,
2015-04-01 13:45:00,66.0,41.0,30.13,WSW,250,1.0,6.0,41,0.00,,,0.00,weatherlink.com 1.10,2015-04-01 17:45:00,
2015-04-01 14:00:00,65.8,41.0,30.13,South,176,1.0,5.0,41,0.00,,,0.00,weatherlink.com 1.10,2015-04-01 18:00:00,
2015-04-01 14:15:00,66.6,41.0,30.12,SW,221,1.0,8.0,40,0.00,,,0.00,weatherlink.com 1.10,2015-04-01 18:15:00,
2015-04-01 14:30:00,66.7,43.0,30.11,South,173,1.0,5.0,42,0.00,,,0.00,weatherlink.com 1.10,2015-04-01 18:30:00,
2015-04-01 14:46:00,66.9,40.0,30.10,South,174,2.0,7.0,38,0.00,,,0.00,weatherlink.com 1.10,2015-04-01 18:46:00,
2015-04-01 15:01:00,66.9,40.0,30.10,South,172,3.0,6.0,38,0.00,,,0.00,weatherlink.com 1.10,2015-04-01 19:01:00,
2015-04-01 15:16:00,67.5,40.0,30.09,SW,226,3.0,7.0,37,0.00,,,0.00,weatherlink.com 1.10,2015-04-01 19:16:00,
2015-04-01 15:31:00,68.1,41.0,30.09,SW,222,3.0,5.0,38,0.00,,,0.00,weatherlink.com 1.10,2015-04-01 19:31:00,
2015-04-01 15:46:00,69.3,42.0,30.09,South,173,2.0,8.0,38,0.00,,,0.00,weatherlink.com 1.10,2015-04-01 19:46:00,
2015-04-01 16:01:00,69.9,40.0,30.09,SSW,194,3.0,7.0,34,0.00,,,0.00,weatherlink.com 1.10,2015-04-01 20:01:00,
2015-04-01 16:16:00,70.0,41.0,30.09,SE,145,2.0,6.0,35,0.00,,,0.00,weatherlink.com 1.10,2015-04-01 20:16:00,
2015-04-01 16:31:00,70.9,41.0,30.08,South,177,3.0,6.0,34,0.00,,,0.00,weatherlink.com 1.10,2015-04-01 20:31:00,
2015-04-01 16:46:00,70.8,40.0,30.08,South,170,1.0,7.0,33,0.00,,,0.00,weatherlink.com 1.10,2015-04-01 20:46:00,
2015-04-01 17:01:00,70.3,41.0,30.07,SSE,167,1.0,6.0,34,0.00,,,0.00,weatherlink.com 1.10,2015-04-01 21:01:00,
2015-04-01 17:16:00,69.6,41.0,30.06,SSE,167,0.0,5.0,35,0.00,,,0.00,weatherlink.com 1.10,2015-04-01 21:16:00,
2015-04-01 17:31:00,67.7,40.0,30.06,South,186,2.0,8.0,37,0.00,,,0.00,weatherlink.com 1.10,2015-04-01 21:31:00,
2015-04-01 17:46:00,66.8,39.0,30.06,SSE,162,2.0,5.0,36,0.00,,,0.00,weatherlink.com 1.10,2015-04-01 21:46:00,
2015-04-01 18:01:00,66.4,39.0,30.06,South,179,2.0,8.0,37,0.00,,,0.00,weatherlink.com 1.10,2015-04-01 22:01:00,
2015-04-01 18:16:00,66.3,40.0,30.06,SE,143,1.0,7.0,39,0.00,,,0.00,weatherlink.com 1.10,2015-04-01 22:16:00,
2015-04-01 18:31:00,65.8,40.0,30.06,South,183,1.0,10.0,39,0.00,,,0.00,weatherlink.com 1.10,2015-04-01 22:31:00,
2015-04-01 18:46:00,64.9,40.0,30.05,South,184,2.0,4.0,40,0.00,,,0.00,weatherlink.com 1.10,2015-04-01 22:46:00,
2015-04-01 19:01:00,64.1,40.0,30.05,SSE,148,1.0,3.0,42,0.00,,,0.00,weatherlink.com 1.10,2015-04-01 23:01:00,
2015-04-01 19:16:00,63.3,40.0,30.06,South,174,0.0,4.0,43,0.00,,,0.00,weatherlink.com 1.10,2015-04-01 23:16:00,
2015-04-01 19:31:00,62.5,40.0,30.06,South,184,0.0,3.0,44,0.00,,,0.00,weatherlink.com 1.10,2015-04-01 23:31:00,
2015-04-01 19:46:00,61.4,40.0,30.05,South,185,0.0,1.0,46,0.00,,,0.00,weatherlink.com 1.10,2015-04-01 23:46:00,
2015-04-01 20:01:00,59.6,40.0,30.05,SSW,194,0.0,0.0,49,0.00,,,0.00,weatherlink.com 1.10,2015-04-02 00:01:00,
2015-04-01 20:16:00,57.7,40.0,30.05,NE,44,0.0,1.0,52,0.00,,,0.00,weatherlink.com 1.10,2015-04-02 00:16:00,
2015-04-01 20:31:00,56.2,40.0,30.05,South,184,0.0,0.0,54,0.00,,,0.00,weatherlink.com 1.10,2015-04-02 00:31:00,
2015-04-01 20:46:00,56.4,40.0,30.05,South,187,0.0,2.0,54,0.00,,,0.00,weatherlink.com 1.10,2015-04-02 00:46:00,